Location: Raven Rock State Park
(35.4652°N, 78.9116°W)
Time: 20:23:52
(UTC-04:00)

Hubble Space Telescope - Visible Passes

Search period start: 25 May 2018 00:00
Search period end: 04 June 2018 00:00
Orbit: 537 x 541 km, 28.5° (Epoch: 24 May)

Date Brightness Start Highest point End Pass type
(mag) Time Alt. Az. Time Alt. Az. Time Alt. Az.
29 May 3.2 03:53:54 11° SE 03:53:54 11° SE 03:54:22 10° SE visible
29 May 2.1 05:29:38 10° SW 05:33:08 26° S 05:36:37 10° ESE visible
30 May 3.2 03:43:58 12° SE 03:43:58 12° SE 03:44:31 10° SE visible
30 May 1.9 05:19:18 11° SW 05:22:43 28° S 05:26:18 10° ESE visible
31 May 3.3 03:34:02 12° SE 03:34:02 12° SE 03:34:28 10° ESE visible
31 May 1.8 05:09:23 14° SW 05:12:20 30° S 05:15:58 10° ESE visible
01 Jun 3.4 03:24:08 11° ESE 03:24:08 11° ESE 03:24:19 10° ESE visible
01 Jun 1.7 04:59:29 17° SW 05:01:56 31° S 05:05:36 10° ESE visible
02 Jun 1.7 04:49:38 21° SW 04:51:32 31° S 04:55:12 10° ESE visible
03 Jun 1.7 04:39:52 25° SW 04:41:08 30° S 04:44:47 10° ESE visible
